Time,TemperatureF,DewpointF,PressureIn,WindDirection,WindDirectionDegrees,WindSpeedMPH,WindSpeedGustMPH,Humidity,HourlyPrecipIn,Conditions,Clouds,dailyrainin,SoftwareType,DateUTC
2013-10-11 00:24:00,56.0,47.0,30.18,SSE,157,0.0,0.0,71,-99.99,,,-99.99,,2013-10-11 04:24:00,
2013-10-11 00:34:00,56.0,47.0,30.18,SSE,157,0.0,0.0,71,-99.99,,,-99.99,,2013-10-11 04:34:00,
2013-10-11 00:44:00,56.0,47.0,30.18,SSE,157,0.0,0.0,71,-99.99,,,-99.99,,2013-10-11 04:44:00,
2013-10-11 00:53:00,55.0,46.0,30.19,SE,135,0.0,3.0,72,-99.99,,,-99.99,,2013-10-11 04:53:00,
2013-10-11 01:23:00,55.0,47.0,30.18,SE,135,0.0,0.0,73,-99.99,,,-99.99,,2013-10-11 05:23:00,
2013-10-11 01:43:00,55.0,47.0,30.18,SE,135,0.0,0.0,74,-99.99,,,-99.99,,2013-10-11 05:43:00,
2013-10-11 01:52:00,56.0,48.0,30.18,ESE,112,0.0,0.0,74,-99.99,,,-99.99,,2013-10-11 05:52:00,
2013-10-11 02:12:00,56.0,48.0,30.17,SE,135,0.0,0.0,74,-99.99,,,-99.99,,2013-10-11 06:12:00,
2013-10-11 02:22:00,56.0,48.0,30.17,SE,135,0.0,0.0,74,-99.99,,,-99.99,,2013-10-11 06:22:00,
2013-10-11 02:32:00,56.0,48.0,30.17,SE,135,0.0,0.0,74,-99.99,,,-99.99,,2013-10-11 06:32:00,
2013-10-11 02:43:00,56.0,48.0,30.17,SE,135,0.0,0.0,74,-99.99,,,-99.99,,2013-10-11 06:43:00,
2013-10-11 02:52:00,55.0,47.0,30.17,ESE,112,0.0,3.0,75,-99.99,,,-99.99,,2013-10-11 06:52:00,
2013-10-11 03:11:00,55.0,48.0,30.17,ENE,67,0.0,0.0,76,-99.99,,,-99.99,,2013-10-11 07:11:00,
2013-10-11 03:21:00,55.0,47.0,30.18,East,90,0.0,0.0,75,-99.99,,,-99.99,,2013-10-11 07:21:00,
2013-10-11 03:42:00,54.0,47.0,30.18,East,90,0.0,0.0,76,-99.99,,,-99.99,,2013-10-11 07:42:00,
2013-10-11 03:52:00,53.0,46.0,30.18,SSE,157,0.0,0.0,76,-99.99,,,-99.99,,2013-10-11 07:52:00,
2013-10-11 04:22:00,52.0,46.0,30.18,SSE,157,0.0,0.0,79,-99.99,,,-99.99,,2013-10-11 08:22:00,
2013-10-11 04:42:00,52.0,46.0,30.18,SE,135,0.0,0.0,79,-99.99,,,-99.99,,2013-10-11 08:42:00,
2013-10-11 04:52:00,52.0,46.0,30.18,SE,135,0.0,0.0,79,-99.99,,,-99.99,,2013-10-11 08:52:00,
2013-10-11 05:22:00,52.0,46.0,30.17,SE,135,0.0,0.0,81,-99.99,,,-99.99,,2013-10-11 09:22:00,
2013-10-11 05:43:00,52.0,46.0,30.17,SE,135,0.0,0.0,81,-99.99,,,-99.99,,2013-10-11 09:43:00,
2013-10-11 05:53:00,52.0,47.0,30.17,SSE,157,0.0,0.0,82,-99.99,,,-99.99,,2013-10-11 09:53:00,
2013-10-11 06:23:00,53.0,48.0,30.17,NE,45,4.0,4.0,83,-99.99,,,-99.99,,2013-10-11 10:23:00,
2013-10-11 06:53:00,53.0,48.0,30.16,ESE,112,0.0,0.0,83,-99.99,,,-99.99,,2013-10-11 10:53:00,
2013-10-11 07:22:00,53.0,48.0,30.16,ENE,67,0.0,0.0,82,-99.99,,,-99.99,,2013-10-11 11:22:00,
2013-10-11 07:52:00,53.0,48.0,30.16,ENE,67,0.0,0.0,82,-99.99,,,-99.99,,2013-10-11 11:52:00,
2013-10-11 08:22:00,53.0,48.0,30.17,ENE,67,0.0,0.0,83,-99.99,,,-99.99,,2013-10-11 12:22:00,
2013-10-11 08:52:00,53.0,48.0,30.18,SSE,157,0.0,0.0,84,-99.99,,,-99.99,,2013-10-11 12:52:00,
2013-10-11 09:21:00,54.0,49.0,30.18,SE,135,0.0,0.0,84,-99.99,,,-99.99,,2013-10-11 13:21:00,
2013-10-11 09:43:00,55.0,50.0,30.18,SSE,157,0.0,0.0,83,-99.99,,,-99.99,,2013-10-11 13:43:00,
2013-10-11 09:53:00,57.0,52.0,30.17,NE,45,0.0,0.0,82,-99.99,,,-99.99,,2013-10-11 13:53:00,
2013-10-11 10:11:00,57.0,51.0,30.18,ESE,112,0.0,0.0,81,-99.99,,,-99.99,,2013-10-11 14:11:00,
2013-10-11 10:22:00,58.0,52.0,30.16,ENE,67,0.0,0.0,79,-99.99,,,-99.99,,2013-10-11 14:22:00,
2013-10-11 10:52:00,59.0,52.0,30.16,East,90,0.0,3.0,78,-99.99,,,-99.99,,2013-10-11 14:52:00,
2013-10-11 11:22:00,62.0,55.0,30.17,SSE,157,2.0,2.0,77,-99.99,,,-99.99,,2013-10-11 15:22:00,
2013-10-11 11:44:00,63.0,55.0,30.15,ESE,112,0.0,8.0,75,-99.99,,,-99.99,,2013-10-11 15:44:00,
2013-10-11 11:53:00,65.0,56.0,30.15,ESE,112,2.0,4.0,74,-99.99,,,-99.99,,2013-10-11 15:53:00,
2013-10-11 12:22:00,68.0,57.0,30.14,SE,135,3.0,4.0,69,-99.99,,,-99.99,,2013-10-11 16:22:00,
2013-10-11 12:43:00,70.0,58.0,30.13,SSW,202,8.0,8.0,66,-99.99,,,-99.99,,2013-10-11 16:43:00,
2013-10-11 12:53:00,70.0,58.0,30.13,SSW,202,8.0,8.0,66,-99.99,,,-99.99,,2013-10-11 16:53:00,
2013-10-11 13:22:00,73.0,58.0,30.11,SSW,198,10.0,13.0,60,-99.99,,,-99.99,,2013-10-11 17:22:00,
2013-10-11 13:43:00,73.0,57.0,30.11,SSE,157,6.0,8.0,58,-99.99,,,-99.99,,2013-10-11 17:43:00,
2013-10-11 13:53:00,74.0,57.0,30.09,South,180,11.0,11.0,56,-99.99,,,-99.99,,2013-10-11 17:53:00,
2013-10-11 14:12:00,74.0,57.0,30.08,South,180,11.0,11.0,56,-99.99,,,-99.99,,2013-10-11 18:12:00,
2013-10-11 14:21:00,74.0,57.0,30.08,South,180,11.0,11.0,56,-99.99,,,-99.99,,2013-10-11 18:21:00,
2013-10-11 14:43:00,75.0,57.0,30.06,SSE,157,19.0,19.0,53,-99.99,,,-99.99,,2013-10-11 18:43:00,
2013-10-11 14:53:00,76.0,58.0,30.05,South,180,18.0,18.0,53,-99.99,,,-99.99,,2013-10-11 18:53:00,
2013-10-11 15:21:00,76.0,56.0,30.04,SSE,157,9.0,9.0,50,-99.99,,,-99.99,,2013-10-11 19:21:00,
2013-10-11 15:42:00,76.0,57.0,30.03,South,180,19.0,25.0,51,-99.99,,,-99.99,,2013-10-11 19:42:00,
2013-10-11 15:52:00,76.0,55.0,30.03,SSE,157,12.0,24.0,49,-99.99,,,-99.99,,2013-10-11 19:52:00,
2013-10-11 16:02:00,76.0,55.0,30.03,SSE,157,12.0,24.0,49,-99.99,,,-99.99,,2013-10-11 20:02:00,
2013-10-11 16:22:00,77.0,56.0,30.02,SSE,157,16.0,20.0,48,-99.99,,,-99.99,,2013-10-11 20:22:00,
2013-10-11 16:53:00,76.0,54.0,30.01,South,180,14.0,17.0,47,-99.99,,,-99.99,,2013-10-11 20:53:00,
2013-10-11 17:22:00,76.0,55.0,30.01,South,180,22.0,22.0,48,-99.99,,,-99.99,,2013-10-11 21:22:00,
2013-10-11 17:54:00,75.0,55.0,30.01,South,180,12.0,13.0,49,-99.99,,,-99.99,,2013-10-11 21:54:00,
2013-10-11 18:24:00,75.0,55.0,30.01,South,186,11.0,16.0,50,-99.99,,,-99.99,,2013-10-11 22:24:00,
2013-10-11 18:33:00,75.0,55.0,30.01,South,186,11.0,16.0,50,-99.99,,,-99.99,,2013-10-11 22:33:00,
2013-10-11 18:53:00,74.0,54.0,30.02,South,180,12.0,16.0,50,-99.99,,,-99.99,,2013-10-11 22:53:00,
2013-10-11 19:22:00,73.0,53.0,30.01,SSE,157,3.0,11.0,49,-99.99,,,-99.99,,2013-10-11 23:22:00,
2013-10-11 19:33:00,73.0,53.0,30.01,SSE,157,3.0,11.0,49,-99.99,,,-99.99,,2013-10-11 23:33:00,
2013-10-11 19:53:00,73.0,54.0,30.02,ESE,112,2.0,17.0,51,-99.99,,,-99.99,,2013-10-11 23:53:00,
2013-10-11 20:22:00,70.0,53.0,30.02,SSE,157,11.0,12.0,54,-99.99,,,-99.99,,2013-10-12 00:22:00,
2013-10-11 20:52:00,70.0,53.0,30.02,ESE,112,6.0,11.0,55,-99.99,,,-99.99,,2013-10-12 00:52:00,
2013-10-11 21:22:00,70.0,53.0,30.02,SSE,157,12.0,18.0,55,-99.99,,,-99.99,,2013-10-12 01:22:00,
2013-10-11 21:52:00,70.0,53.0,30.02,SSW,202,21.0,21.0,55,-99.99,,,-99.99,,2013-10-12 01:52:00,
2013-10-11 22:23:00,70.0,53.0,30.02,South,180,17.0,17.0,55,-99.99,,,-99.99,,2013-10-12 02:23:00,
2013-10-11 22:52:00,71.0,54.0,30.01,SSW,202,18.0,18.0,56,-99.99,,,-99.99,,2013-10-12 02:52:00,
2013-10-11 23:23:00,71.0,54.0,30.00,SSE,157,17.0,19.0,56,-99.99,,,-99.99,,2013-10-12 03:23:00,
2013-10-11 23:54:00,70.0,54.0,30.00,SSE,157,12.0,17.0,56,-99.99,,,-99.99,,2013-10-12 03:54:00,